Wetterdaten: aktuell Dienstag, 02.03.2021 05:30
Datum Zeit Temp. Aussen Feuchte A. Sonne Luftdruck Regen Richtung Richtung Sonnen-Zeit Windben
02.03.2021 05:30 -0,2 C 60 % 0 % 1033,8 hPa 0,0 l/m O-NO 69 0 min 0,0 km/h (0 Bft)
02.03.2021 05:25 -0,3 C 60 % 0 % 1033,8 hPa 0,0 l/m O-NO 69 0 min 0,0 km/h (0 Bft)
02.03.2021 05:20 -0,5 C 60 % 0 % 1033,8 hPa 0,0 l/m O-NO 69 0 min 0,0 km/h (0 Bft)
02.03.2021 05:15 -0,5 C 60 % 0 % 1033,8 hPa 0,0 l/m O-NO 69 0 min 0,0 km/h (0 Bft)
02.03.2021 05:10 -0,6 C 60 % 0 % 1033,8 hPa 0,0 l/m O-NO 69 0 min 0,0 km/h (0 Bft)
02.03.2021 05:05 -0,6 C 59 % 0 % 1033,8 hPa 0,0 l/m O-NO 69 0 min 0,0 km/h (0 Bft)
02.03.2021 05:00 -0,5 C 59 % 0 % 1033,8 hPa 0,0 l/m O-NO 69 0 min 0,0 km/h (0 Bft)
02.03.2021 04:55 -0,5 C 59 % 0 % 1033,8 hPa 0,0 l/m O-NO 69 0 min 0,0 km/h (0 Bft)
02.03.2021 04:50 -0,5 C 58 % 0 % 1033,8 hPa 0,0 l/m O-NO 69 0 min 0,0 km/h (0 Bft)
02.03.2021 04:45 -0,4 C 58 % 0 % 1033,8 hPa 0,0 l/m O-NO 69 0 min 0,0 km/h (0 Bft)
02.03.2021 04:40 -0,2 C 58 % 0 % 1033,8 hPa 0,0 l/m O-NO 69 0 min 0,0 km/h (0 Bft)
02.03.2021 04:35 -0,1 C 58 % 0 % 1033,8 hPa 0,0 l/m O-NO 69 0 min 0,0 km/h (0 Bft)
02.03.2021 04:30 0,1 C 58 % 0 % 1033,7 hPa 0,0 l/m O-NO 69 0 min 0,0 km/h (0 Bft)
02.03.2021 04:25 0,3 C 58 % 0 % 1033,7 hPa 0,0 l/m O-NO 69 0 min 0,0 km/h (0 Bft)
02.03.2021 04:20 0,3 C 58 % 0 % 1033,7 hPa 0,0 l/m O-NO 69 0 min 0,0 km/h (0 Bft)
02.03.2021 04:15 0,2 C 58 % 0 % 1033,7 hPa 0,0 l/m O-NO 69 0 min 0,0 km/h (0 Bft)
02.03.2021 04:10 0,2 C 58 % 0 % 1033,7 hPa 0,0 l/m O-NO 69 0 min 0,0 km/h (0 Bft)
02.03.2021 04:05 0,0 C 57 % 0 % 1033,7 hPa 0,0 l/m O-NO 69 0 min 0,0 km/h (0 Bft)
02.03.2021 04:00 0,2 C 57 % 0 % 1033,7 hPa 0,0 l/m O-NO 69 0 min 0,0 km/h (0 Bft)
02.03.2021 03:55 0,3 C 58 % 0 % 1033,7 hPa 0,0 l/m O-NO 69 0 min 0,0 km/h (0 Bft)
02.03.2021 03:50 0,1 C 57 % 0 % 1033,7 hPa 0,0 l/m O-NO 68 0 min 0,0 km/h (0 Bft)
02.03.2021 03:45 0,1 C 57 % 0 % 1033,7 hPa 0,0 l/m O-NO 69 0 min 0,0 km/h (0 Bft)
02.03.2021 03:40 0,2 C 57 % 0 % 1033,7 hPa 0,0 l/m O-NO 69 0 min 0,0 km/h (0 Bft)
02.03.2021 03:35 0,4 C 57 % 0 % 1033,7 hPa 0,0 l/m O-NO 68 0 min 0,0 km/h (0 Bft)
02.03.2021 03:30 0,6 C 57 % 0 % 1033,7 hPa 0,0 l/m O-NO 69 0 min 0,0 km/h (0 Bft)
02.03.2021 03:25 0,6 C 57 % 0 % 1033,7 hPa 0,0 l/m O-NO 69 0 min 0,0 km/h (0 Bft)
02.03.2021 03:20 0,9 C 56 % 0 % 1033,6 hPa 0,0 l/m O-NO 69 0 min 0,0 km/h (0 Bft)
02.03.2021 03:15 1,1 C 56 % 0 % 1033,6 hPa 0,0 l/m O-NO 69 0 min 0,0 km/h (0 Bft)
02.03.2021 03:10 1,0 C 56 % 0 % 1033,6 hPa 0,0 l/m O-NO 69 0 min 0,0 km/h (0 Bft)
02.03.2021 03:05 1,3 C 56 % 0 % 1033,6 hPa 0,0 l/m O-NO 69 0 min 0,0 km/h (0 Bft)
02.03.2021 03:00 1,6 C 56 % 0 % 1033,6 hPa 0,0 l/m O-NO 69 0 min 0,0 km/h (0 Bft)
02.03.2021 02:55 1,8 C 57 % 0 % 1033,5 hPa 0,0 l/m O-NO 69 0 min 0,0 km/h (0 Bft)
02.03.2021 02:50 1,7 C 57 % 0 % 1033,5 hPa 0,0 l/m O 79 0 min 0,0 km/h (0 Bft)
02.03.2021 02:45 1,6 C 57 % 0 % 1033,6 hPa 0,0 l/m O-NO 64 0 min 0,0 km/h (0 Bft)
02.03.2021 02:40 1,3 C 57 % 0 % 1033,6 hPa 0,0 l/m NO 54 0 min 0,0 km/h (0 Bft)
02.03.2021 02:35 0,9 C 57 % 0 % 1033,6 hPa 0,0 l/m NO 54 0 min 0,0 km/h (0 Bft)
02.03.2021 02:30 0,6 C 57 % 0 % 1033,7 hPa 0,0 l/m NO 54 0 min 0,0 km/h (0 Bft)
02.03.2021 02:25 0,5 C 56 % 0 % 1033,7 hPa 0,0 l/m NO 54 0 min 0,0 km/h (0 Bft)
02.03.2021 02:20 0,6 C 56 % 0 % 1033,7 hPa 0,0 l/m NO 54 0 min 0,0 km/h (0 Bft)
02.03.2021 02:15 0,7 C 56 % 0 % 1033,7 hPa 0,0 l/m NO 54 0 min 0,0 km/h (0 Bft)
02.03.2021 02:10 0,9 C 55 % 0 % 1033,6 hPa 0,0 l/m NO 54 0 min 0,0 km/h (0 Bft)
02.03.2021 02:05 1,0 C 55 % 0 % 1033,6 hPa 0,0 l/m NO 54 0 min 0,0 km/h (0 Bft)
02.03.2021 02:00 1,0 C 55 % 0 % 1033,6 hPa 0,0 l/m NO 54 0 min 0,0 km/h (0 Bft)
02.03.2021 01:55 1,0 C 55 % 0 % 1033,6 hPa 0,0 l/m NO 54 0 min 0,0 km/h (0 Bft)
02.03.2021 01:50 1,0 C 53 % 0 % 1033,6 hPa 0,0 l/m NO 54 0 min 0,0 km/h (0 Bft)
02.03.2021 01:45 1,1 C 53 % 0 % 1033,6 hPa 0,0 l/m NO 54 0 min 0,0 km/h (0 Bft)
02.03.2021 01:40 1,4 C 53 % 0 % 1033,6 hPa 0,0 l/m NO 54 0 min 0,0 km/h (0 Bft)
02.03.2021 01:35 1,8 C 53 % 0 % 1033,5 hPa 0,0 l/m NO 54 0 min 0,0 km/h (0 Bft)
02.03.2021 01:30 2,2 C 54 % 0 % 1033,5 hPa 0,0 l/m NO 54 0 min 0,0 km/h (0 Bft)
02.03.2021 01:25 2,1 C 55 % 0 % 1033,5 hPa 0,0 l/m NO 51 0 min 0,0 km/h (0 Bft)
02.03.2021 01:20 2,0 C 55 % 0 % 1033,5 hPa 0,0 l/m NO 51 0 min 0,0 km/h (0 Bft)
02.03.2021 01:15 1,6 C 54 % 0 % 1033,6 hPa 0,0 l/m NO 51 0 min 0,0 km/h (0 Bft)
02.03.2021 01:10 1,2 C 53 % 0 % 1033,6 hPa 0,0 l/m O-SO 113 0 min 0,0 km/h (0 Bft)
02.03.2021 01:05 1,1 C 52 % 0 % 1033,6 hPa 0,0 l/m O-SO 113 0 min 0,0 km/h (0 Bft)
02.03.2021 01:00 1,2 C 51 % 0 % 1033,6 hPa 0,0 l/m O-SO 113 0 min 0,0 km/h (0 Bft)
02.03.2021 00:55 1,3 C 51 % 0 % 1033,6 hPa 0,0 l/m O-SO 113 0 min 0,0 km/h (0 Bft)
02.03.2021 00:50 1,2 C 50 % 0 % 1033,6 hPa 0,0 l/m O-SO 113 0 min 0,0 km/h (0 Bft)
02.03.2021 00:45 1,4 C 50 % 0 % 1033,6 hPa 0,0 l/m O-SO 102 0 min 0,0 km/h (0 Bft)
02.03.2021 00:40 1,6 C 49 % 0 % 1033,6 hPa 0,0 l/m O-SO 102 0 min 0,0 km/h (0 Bft)
02.03.2021 00:35 1,8 C 49 % 0 % 1033,5 hPa 0,0 l/m O-SO 102 0 min 0,0 km/h (0 Bft)
02.03.2021 00:30 2,0 C 48 % 0 % 1033,5 hPa 0,0 l/m O-SO 102 0 min 0,0 km/h (0 Bft)
02.03.2021 00:25 2,5 C 48 % 0 % 1033,5 hPa 0,0 l/m O-SO 102 0 min 0,0 km/h (0 Bft)
02.03.2021 00:20 3,0 C 49 % 0 % 1033,4 hPa 0,0 l/m NO 52 0 min 0,0 km/h (0 Bft)
02.03.2021 00:15 2,8 C 50 % 0 % 1033,4 hPa 0,0 l/m NO 52 0 min 0,0 km/h (0 Bft)
02.03.2021 00:10 2,4 C 49 % 0 % 1033,5 hPa 0,0 l/m N-NO 32 0 min 0,0 km/h (0 Bft)
02.03.2021 00:05 2,2 C 48 % 0 % 1033,5 hPa 0,0 l/m N-NO 32 0 min 0,0 km/h (0 Bft)
02.03.2021 00:00 2,1 C 48 % 0 % 1033,5 hPa 0,0 l/m N-NO 32 0 min 0,0 km/h (0 Bft)
_ Min-Zeit 05:05 00:00 - 00:20 - - - - 00:00
Minimum _ -0,6 C 48 % - 1033,4 hPa - - - - 0,0 km/h (0 Bft)
_ Max-Zeit 00:20 05:10 00:00 05:05 00:00 - - 00:00 00:00
Maximum _ 3,0 C 60 % 0 % 1033,8 hPa 0,0 l/m - - 0 min 0,0 km/h
N-NO (0 Bft)
Durchschnitt _ 0,9 C 55 % #0 min. 1033,6 hPa #0,0 l/m - - - #0 min. 0,0 km/h (0 Bft)